RESOURCESAT-2A

Last updated on Mon Oct 14 2024 00:02:25 GMT+0000 (Coordinated Universal Time)

1 41877U 16074A 24287.52744618 .00000837 00000+0 40080-3 0 9997 2 41877 98.6352 358.5348 0001735 55.0944 305.0397 14.21663814407397
UTC large
Height (km)
Speed (km/s)
/
Latitude / Longitude
Inclination (degrees)
Orbital Period (minutes)
Azimuth
Elevation
Range (km)
Doppler Factor

Next 0 passes for location: London (51.5072 / 0.1276)

Sorry there are no passes over London.